sat.trackr.live / text

‹ back to catalog

ONEWEB-0102

NORAD 47258 · 2020-100A

PAYLOAD ACTIVE UNKNOWN

§ Identity

Operator
Country
UK
Launch date
2020-12-18
Launch site
VOSTO
Launch vehicle
Mass (kg)
RCS (m²)

Purposes: comms

External: N2YO · Heavens-Above · Gunter

§ Orbital elements

Epoch: 2026-09-13T04:30:34.305984Z

Period
109.72 min
Inclination
87.8987°
Eccentricity
0.0001906
Mean motion
13.12443621 rev/d
Perigee alt
1,212.3 km
Apogee alt
1,215.2 km
Semi-major
7,591.9 km
B*
1.4234e-4
RAAN
333.2001°
Arg perigee
93.3557°
Mean anomaly
266.7789°
Rev number
27,627

§ Raw data

ONEWEB-01021 47258U 20100A   26256.18789706  .00000064  00000+0  14234-3 0  99922 47258  87.8987 333.2001 0001906  93.3557 266.7789 13.12443621276271

JSON: /api/v1/satellites/47258 · /tle

For live sub-satellite position, see the globe view (requires WebGL).

§ Visibility from observer

Set your observer location to see the next 7 days of passes ≥ 10°. The values pass through the URL so the page stays shareable.

No JS? Fill the form by hand. The geolocation button needs JavaScript.